Location: Gollag?dem
(17.0207°N, 80.7261°E)
Time: 13:20:02
(UTC+00:00)

Atlas Centaur 2 - Pass Details

Date: 03 August 2024
Orbit: 457 x 1271 km, 30.4° (Epoch: 11 September)

Event Time Altitude Azimuth Distance (km) Brightness Sun altitude
Rises 14:43:45 0° 266° (W) 2,624 5.8 -21.8°
Reaches altitude 10° 14:45:57 10° 276° (W) 1,819 4.9 -22.3°
Maximum altitude 14:49:47 34° 343° (NNW) 1,022 3.0 -23.1°
Enters shadow 14:52:54 17° 39° (NE) 1,696 3.7 -23.7°
